This is the latest recevied weather packets stored in our database for station/object NC4M. If no packets are shown the sender has not sent any weather packets the latest 10 day(s).
| Time | Temp. | Humidity | Pressure | Rain* | Wind** | Luminosity | Snow |
|---|---|---|---|---|---|---|---|
| 1788130688 | 32.78° C | 45% | 1015.1 hPa | 0 mm | - | 61 W/m² | - |
| 1788130383 | 32.78° C | 46% | 1015 hPa | 0 mm | - | 55 W/m² | - |
| 1788130082 | 33.33° C | 46% | 1015.2 hPa | 0 mm | - | 57 W/m² | - |
| 1788129777 | 33.89° C | 43% | 1015.2 hPa | 0 mm | - | 68 W/m² | - |
| 1788129474 | 33.89° C | 42% | 1015 hPa | 0 mm | - | 69 W/m² | - |
| 1788129170 | 34.44° C | 41% | 1015.3 hPa | 0 mm | - | 83 W/m² | - |
| 1788128864 | 35.56° C | 43% | 1015.2 hPa | 0 mm | - | 87 W/m² | - |
| 1788128559 | 36.11° C | 42% | 1015.2 hPa | 0 mm | - | 237 W/m² | - |
| 1788128254 | 36.67° C | 37% | 1015.3 hPa | 0 mm | - | 215 W/m² | - |
| 1788127952 | 36.67° C | 34% | 1015.3 hPa | 0 mm | - | 321 W/m² | - |
| 1788127647 | 36.67° C | 33% | 1015.2 hPa | 0 mm | - | 336 W/m² | - |
| 1788127345 | 36.67° C | 34% | 1015.2 hPa | 0 mm | - | 346 W/m² | - |
| 1788127044 | 36.67° C | 34% | 1015.2 hPa | 0 mm | - | 370 W/m² | - |
| 1788126739 | 37.22° C | 33% | 1015.4 hPa | 0 mm | - | 385 W/m² | - |
| 1788126434 | 37.22° C | 34% | 1015.4 hPa | 0 mm | - | 409 W/m² | - |
| 1788126129 | 37.22° C | 33% | 1015.3 hPa | 0 mm | - | 422 W/m² | - |
| 1788125828 | 37.22° C | 32% | 1015.6 hPa | 0 mm | - | 433 W/m² | - |
| 1788125523 | 37.22° C | 33% | 1015.3 hPa | 0 mm | - | 445 W/m² | - |
| 1788125219 | 37.78° C | 32% | 1015.5 hPa | 0 mm | - | 479 W/m² | - |
| 1788124915 | 37.78° C | 32% | 1015.3 hPa | 0 mm | - | 483 W/m² | - |
| 1788124614 | 37.78° C | 31% | 1015.5 hPa | 0 mm | - | 493 W/m² | - |
| 1788124313 | 38.33° C | 32% | 1015.5 hPa | 0 mm | - | 531 W/m² | - |
| 1788124009 | 37.78° C | 37% | 1015.8 hPa | 0 mm | - | 548 W/m² | - |
| 1788123709 | 37.22° C | 35% | 1015.7 hPa | 0 mm | - | 576 W/m² | - |
| 1788123406 | 37.22° C | 33% | 1015.8 hPa | 0 mm | - | 585 W/m² | - |
* Rain latest hour (hover to see other rain measurements)
** Current wind speed in m/s (hover to see current wind gust speed)